Time,TemperatureF,DewpointF,PressureIn,WindDirection,WindDirectionDegrees,WindSpeedMPH,WindSpeedGustMPH,Humidity,HourlyPrecipIn,Conditions,Clouds,dailyrainin,SolarRadiationWatts/m^2,SoftwareType,DateUTC
2013-11-18 00:01:00,45.0,43.0,-100.00,SE,130,2.0,4.0,94,0.00,,,0.13,0.000000,,2013-11-18 08:01:00,
2013-11-18 00:11:00,45.0,43.0,-100.00,SE,130,2.0,4.0,94,0.00,,,0.13,0.000000,,2013-11-18 08:11:00,
2013-11-18 00:42:00,45.0,43.0,-100.00,ESE,116,2.0,4.0,93,0.00,,,0.13,0.000000,,2013-11-18 08:42:00,
2013-11-18 00:52:00,45.0,43.0,-100.00,ESE,116,2.0,4.0,93,0.00,,,0.13,0.000000,,2013-11-18 08:52:00,
2013-11-18 01:02:00,45.0,43.0,-100.00,ESE,116,2.0,4.0,93,0.00,,,0.13,0.000000,,2013-11-18 09:02:00,
2013-11-18 01:12:00,45.0,43.0,-100.00,ESE,116,2.0,4.0,93,0.00,,,0.13,0.000000,,2013-11-18 09:12:00,
2013-11-18 01:13:00,46.0,43.0,-100.00,SSE,156,2.0,4.0,90,0.00,,,0.12,0.000000,,2013-11-18 09:13:00,
2013-11-18 01:43:00,46.0,43.0,-100.00,SSE,156,2.0,4.0,90,0.00,,,0.12,0.000000,,2013-11-18 09:43:00,
2013-11-18 01:53:00,46.0,43.0,-100.00,SSE,156,2.0,4.0,90,0.00,,,0.12,0.000000,,2013-11-18 09:53:00,
2013-11-18 02:03:00,46.0,43.0,-100.00,SSE,156,2.0,4.0,90,0.00,,,0.12,0.000000,,2013-11-18 10:03:00,
2013-11-18 02:43:00,45.0,43.0,-100.00,SE,131,2.0,4.0,92,0.00,,,0.09,0.000000,,2013-11-18 10:43:00,
2013-11-18 02:53:00,45.0,43.0,-100.00,SE,131,2.0,4.0,92,0.00,,,0.09,0.000000,,2013-11-18 10:53:00,
2013-11-18 03:02:00,45.0,43.0,-100.00,SE,131,2.0,4.0,92,0.00,,,0.09,0.000000,,2013-11-18 11:02:00,
2013-11-18 03:12:00,45.0,43.0,-100.00,SE,131,2.0,4.0,92,0.00,,,0.09,0.000000,,2013-11-18 11:12:00,
2013-11-18 03:42:00,45.0,43.0,-100.00,SE,137,2.0,4.0,92,0.00,,,0.09,0.000000,,2013-11-18 11:42:00,
2013-11-18 03:52:00,45.0,43.0,-100.00,SE,137,2.0,4.0,92,0.00,,,0.09,0.000000,,2013-11-18 11:52:00,
2013-11-18 04:02:00,45.0,43.0,-100.00,SE,137,2.0,4.0,92,0.00,,,0.09,0.000000,,2013-11-18 12:02:00,
2013-11-18 04:12:00,45.0,43.0,-100.00,SE,137,2.0,4.0,92,0.00,,,0.09,0.000000,,2013-11-18 12:12:00,
2013-11-18 04:42:00,45.0,43.0,-100.00,ESE,118,2.0,4.0,93,0.00,,,0.09,0.000000,,2013-11-18 12:42:00,
2013-11-18 04:52:00,45.0,43.0,-100.00,ESE,118,2.0,4.0,93,0.00,,,0.09,0.000000,,2013-11-18 12:52:00,
2013-11-18 05:01:00,45.0,43.0,-100.00,ESE,118,2.0,4.0,93,0.00,,,0.09,0.000000,,2013-11-18 13:01:00,
2013-11-18 05:11:00,45.0,43.0,-100.00,ESE,118,2.0,4.0,93,0.00,,,0.09,0.000000,,2013-11-18 13:11:00,
2013-11-18 05:42:00,44.0,42.0,-100.00,SE,132,2.0,4.0,92,0.00,,,0.01,0.000000,,2013-11-18 13:42:00,
2013-11-18 05:52:00,44.0,42.0,-100.00,SE,132,2.0,4.0,92,0.00,,,0.01,0.000000,,2013-11-18 13:52:00,
2013-11-18 06:02:00,44.0,42.0,-100.00,SE,132,2.0,4.0,92,0.00,,,0.01,0.000000,,2013-11-18 14:02:00,
2013-11-18 06:11:00,44.0,42.0,-100.00,SE,132,2.0,4.0,92,0.00,,,0.01,0.000000,,2013-11-18 14:11:00,
2013-11-18 06:42:00,45.0,41.0,-100.00,SSE,153,2.0,4.0,87,0.00,,,0.00,0.000000,,2013-11-18 14:42:00,
2013-11-18 06:52:00,45.0,41.0,-100.00,SSE,153,2.0,4.0,87,0.00,,,0.00,0.000000,,2013-11-18 14:52:00,
2013-11-18 07:01:00,45.0,41.0,-100.00,SSE,153,2.0,4.0,87,0.00,,,0.00,0.000000,,2013-11-18 15:01:00,
2013-11-18 07:11:00,45.0,41.0,-100.00,SSE,153,2.0,4.0,87,0.00,,,0.00,0.000000,,2013-11-18 15:11:00,
2013-11-18 07:43:00,45.0,42.0,-100.00,SSW,213,1.0,4.0,89,0.00,,,-99.99,0.000000,,2013-11-18 15:43:00,
2013-11-18 07:54:00,45.0,42.0,-100.00,SSW,213,1.0,4.0,89,0.00,,,-99.99,0.000000,,2013-11-18 15:54:00,
2013-11-18 08:03:00,45.0,42.0,-100.00,SSW,213,1.0,4.0,89,0.00,,,-99.99,0.000000,,2013-11-18 16:03:00,
2013-11-18 08:12:00,45.0,42.0,-100.00,SSW,213,1.0,4.0,89,0.00,,,-99.99,0.000000,,2013-11-18 16:12:00,
2013-11-18 08:43:00,47.0,42.0,-100.00,South,185,3.0,4.0,84,0.00,,,0.00,14.000000,,2013-11-18 16:43:00,
2013-11-18 08:52:00,47.0,42.0,-100.00,South,185,3.0,4.0,84,0.00,,,0.00,14.000000,,2013-11-18 16:52:00,
2013-11-18 09:02:00,47.0,42.0,-100.00,South,185,3.0,4.0,84,0.00,,,0.00,14.000000,,2013-11-18 17:02:00,
2013-11-18 09:12:00,47.0,42.0,-100.00,South,185,3.0,4.0,84,0.00,,,0.00,14.000000,,2013-11-18 17:12:00,
2013-11-18 09:43:00,48.0,43.0,-100.00,South,173,3.0,5.0,84,0.00,,,0.00,61.000000,,2013-11-18 17:43:00,
2013-11-18 09:52:00,48.0,43.0,-100.00,South,173,3.0,5.0,84,0.00,,,0.00,61.000000,,2013-11-18 17:52:00,
2013-11-18 10:02:00,48.0,43.0,-100.00,South,173,3.0,5.0,84,0.00,,,0.00,61.000000,,2013-11-18 18:02:00,
2013-11-18 10:12:00,48.0,43.0,-100.00,South,173,3.0,5.0,84,0.00,,,0.00,61.000000,,2013-11-18 18:12:00,
2013-11-18 10:42:00,51.0,45.0,-100.00,South,191,4.0,6.0,79,0.00,,,0.00,77.000000,,2013-11-18 18:42:00,
2013-11-18 10:52:00,51.0,45.0,-100.00,South,191,4.0,6.0,79,0.00,,,0.00,77.000000,,2013-11-18 18:52:00,
2013-11-18 11:01:00,51.0,45.0,-100.00,South,191,4.0,6.0,79,0.00,,,0.00,77.000000,,2013-11-18 19:01:00,
2013-11-18 11:11:00,51.0,45.0,-100.00,South,191,4.0,6.0,79,0.00,,,0.00,77.000000,,2013-11-18 19:11:00,
2013-11-18 11:42:00,52.0,47.0,-100.00,SSW,198,6.0,10.0,82,0.00,,,0.00,103.000000,,2013-11-18 19:42:00,
2013-11-18 11:52:00,52.0,47.0,-100.00,SSW,198,6.0,10.0,82,0.00,,,0.00,103.000000,,2013-11-18 19:52:00,
2013-11-18 12:01:00,52.0,47.0,-100.00,SSW,198,6.0,10.0,82,0.00,,,0.00,103.000000,,2013-11-18 20:01:00,
2013-11-18 12:11:00,52.0,47.0,-100.00,SSW,198,6.0,10.0,82,0.00,,,0.00,103.000000,,2013-11-18 20:11:00,
2013-11-18 12:42:00,53.0,47.0,-100.00,South,191,7.0,12.0,79,0.00,,,0.00,110.000000,,2013-11-18 20:42:00,
2013-11-18 12:52:00,53.0,47.0,-100.00,South,191,7.0,12.0,79,0.00,,,0.00,110.000000,,2013-11-18 20:52:00,
2013-11-18 13:02:00,53.0,47.0,-100.00,South,191,7.0,12.0,79,0.00,,,0.00,110.000000,,2013-11-18 21:02:00,
2013-11-18 13:11:00,53.0,47.0,-100.00,South,191,7.0,12.0,79,0.00,,,0.00,110.000000,,2013-11-18 21:11:00,
2013-11-18 13:43:00,53.0,47.0,-100.00,SSW,197,6.0,11.0,81,0.00,,,0.00,62.000000,,2013-11-18 21:43:00,
2013-11-18 13:54:00,53.0,47.0,-100.00,SSW,197,6.0,11.0,81,0.00,,,0.00,62.000000,,2013-11-18 21:54:00,
2013-11-18 14:03:00,53.0,47.0,-100.00,SSW,197,6.0,11.0,81,0.00,,,0.00,62.000000,,2013-11-18 22:03:00,
2013-11-18 14:12:00,53.0,47.0,-100.00,SSW,197,6.0,11.0,81,0.00,,,0.00,62.000000,,2013-11-18 22:12:00,
2013-11-18 14:43:00,52.0,49.0,-100.00,SSW,198,8.0,14.0,91,0.02,,,0.02,54.000000,,2013-11-18 22:43:00,
2013-11-18 14:52:00,52.0,49.0,-100.00,SSW,198,8.0,14.0,91,0.02,,,0.02,54.000000,,2013-11-18 22:52:00,
2013-11-18 15:02:00,52.0,49.0,-100.00,SSW,198,8.0,14.0,91,0.02,,,0.02,54.000000,,2013-11-18 23:02:00,
2013-11-18 15:12:00,52.0,49.0,-100.00,SSW,198,8.0,14.0,91,0.02,,,0.02,54.000000,,2013-11-18 23:12:00,
2013-11-18 15:42:00,52.0,49.0,-100.00,SSW,192,7.0,15.0,91,0.04,,,0.06,34.000000,,2013-11-18 23:42:00,
2013-11-18 15:52:00,52.0,49.0,-100.00,SSW,192,7.0,15.0,91,0.04,,,0.06,34.000000,,2013-11-18 23:52:00,
2013-11-18 16:01:00,52.0,49.0,-100.00,SSW,192,7.0,15.0,91,0.04,,,0.06,34.000000,,2013-11-19 00:01:00,
2013-11-18 16:11:00,52.0,49.0,-100.00,SSW,192,7.0,15.0,91,0.04,,,0.06,34.000000,,2013-11-19 00:11:00,
2013-11-18 16:42:00,51.0,50.0,-100.00,SSW,197,7.0,14.0,95,0.09,,,0.15,9.000000,,2013-11-19 00:42:00,
2013-11-18 16:52:00,51.0,50.0,-100.00,SSW,197,7.0,14.0,95,0.09,,,0.15,9.000000,,2013-11-19 00:52:00,
2013-11-18 17:02:00,51.0,50.0,-100.00,SSW,197,7.0,14.0,95,0.09,,,0.15,9.000000,,2013-11-19 01:02:00,
2013-11-18 17:11:00,51.0,50.0,-100.00,SSW,197,7.0,14.0,95,0.09,,,0.15,9.000000,,2013-11-19 01:11:00,
2013-11-18 17:42:00,51.0,49.0,-100.00,SSW,195,7.0,14.0,93,0.13,,,0.28,0.000000,,2013-11-19 01:42:00,
2013-11-18 17:52:00,51.0,49.0,-100.00,SSW,195,7.0,14.0,93,0.13,,,0.28,0.000000,,2013-11-19 01:52:00,
2013-11-18 18:01:00,51.0,49.0,-100.00,SSW,195,7.0,14.0,93,0.13,,,0.28,0.000000,,2013-11-19 02:01:00,
2013-11-18 18:11:00,51.0,49.0,-100.00,SSW,195,7.0,14.0,93,0.13,,,0.28,0.000000,,2013-11-19 02:11:00,
2013-11-18 18:42:00,52.0,50.0,-100.00,South,190,7.0,11.0,94,0.13,,,0.41,0.000000,,2013-11-19 02:42:00,
2013-11-18 18:52:00,52.0,50.0,-100.00,South,190,7.0,11.0,94,0.13,,,0.41,0.000000,,2013-11-19 02:52:00,
2013-11-18 19:02:00,52.0,50.0,-100.00,South,190,7.0,11.0,94,0.13,,,0.41,0.000000,,2013-11-19 03:02:00,
2013-11-18 19:11:00,52.0,50.0,-100.00,South,190,7.0,11.0,94,0.13,,,0.41,0.000000,,2013-11-19 03:11:00,
2013-11-18 19:43:00,53.0,51.0,-100.00,South,188,7.0,11.0,94,0.15,,,0.56,0.000000,,2013-11-19 03:43:00,
2013-11-18 19:54:00,53.0,51.0,-100.00,South,188,7.0,11.0,94,0.15,,,0.56,0.000000,,2013-11-19 03:54:00,
2013-11-18 20:12:00,53.0,51.0,-100.00,South,188,7.0,11.0,94,0.15,,,0.56,0.000000,,2013-11-19 04:12:00,
2013-11-18 20:42:00,53.0,50.0,-100.00,South,188,9.0,13.0,91,0.05,,,0.61,0.000000,,2013-11-19 04:42:00,
2013-11-18 20:52:00,53.0,50.0,-100.00,South,188,9.0,13.0,91,0.05,,,0.61,0.000000,,2013-11-19 04:52:00,
2013-11-18 21:02:00,53.0,50.0,-100.00,South,188,9.0,13.0,91,0.05,,,0.61,0.000000,,2013-11-19 05:02:00,
2013-11-18 21:12:00,53.0,50.0,-100.00,South,188,9.0,13.0,91,0.05,,,0.61,0.000000,,2013-11-19 05:12:00,
2013-11-18 21:43:00,54.0,51.0,-100.00,SSW,194,9.0,14.0,89,0.05,,,-99.99,0.000000,,2013-11-19 05:43:00,
2013-11-18 21:53:00,54.0,51.0,-100.00,SSW,194,9.0,14.0,89,0.05,,,-99.99,0.000000,,2013-11-19 05:53:00,
2013-11-18 22:02:00,54.0,51.0,-100.00,SSW,194,9.0,14.0,89,0.05,,,-99.99,0.000000,,2013-11-19 06:02:00,
2013-11-18 22:12:00,54.0,51.0,-100.00,SSW,194,9.0,14.0,89,0.05,,,-99.99,0.000000,,2013-11-19 06:12:00,
2013-11-18 22:42:00,54.0,52.0,-100.00,SSW,192,9.0,15.0,92,0.08,,,0.74,0.000000,,2013-11-19 06:42:00,
2013-11-18 22:52:00,54.0,52.0,-100.00,SSW,192,9.0,15.0,92,0.08,,,0.74,0.000000,,2013-11-19 06:52:00,
2013-11-18 23:01:00,54.0,52.0,-100.00,SSW,192,9.0,15.0,92,0.08,,,0.74,0.000000,,2013-11-19 07:01:00,
2013-11-18 23:12:00,54.0,52.0,-100.00,SSW,192,9.0,15.0,92,0.08,,,0.74,0.000000,,2013-11-19 07:12:00,
2013-11-18 23:42:00,53.0,52.0,-100.00,SSW,197,7.0,14.0,96,0.14,,,0.88,0.000000,,2013-11-19 07:42:00,
2013-11-18 23:52:00,53.0,52.0,-100.00,SSW,197,7.0,14.0,96,0.14,,,0.88,0.000000,,2013-11-19 07:52:00,